Flag for New Zealand Weather past 2 weeks in Auckland, New Zealand

Now
54 °F

Rain. Overcast.


Feels Like: 51 °F
Forecast: 53 / 59 °F
Wind: 9 mph from Southeast

Location: Auckland Airport

Current Time: May 23, 2015 at 8:05:43 AM

Latest Report: May 23, 2015 at 7:30 AM


Visibility: 4 mi

Pressure: 29.68 "Hg

Humidity: 100%

Dew point: 54 °F

Location of AucklandLocation

Historic Weather in Auckland — Graph

°F

Auckland temperature yesterday

Maximum temperature yesterday: 63 °F (at 2:00 AM)
Minimum temperature yesterday: 52 °F (at 9:00 PM)
Average temperature yesterday: 58 °F

Past Weeks' High & Low Weather Summary

 TemperatureHumidityPressure
High68 °F (May 11, 1:00 PM)100% (May 8, 7:00 AM)30.21 "Hg (May 8, 7:00 AM)
Low45 °F (May 20, 7:00 AM)55% (May 16, 12:00 PM)29.42 "Hg (May 15, 6:30 AM)
Average58 °F84%29.89 "Hg
* Reported May 8 7:00 AM — May 23 7:00 AM, Auckland, Weather by CustomWeather, © 2015

Note: Actual official high and low records may vary slightly from our data, if they occured in-between our weather recording intervals... More about our weather records

Advertising

Auckland weather history for previous 24 hours

 ConditionsComfort  
Time TempWeatherWind HumidityBarometerVisibility
7:00 AM
Sat, May 23
54 °FLight rain. Overcast.8 mph100%29.68 "Hg6 mi
6:30 AM54 °FLight rain. Overcast.6 mph100%29.71 "HgN/A
6:00 AM54 °FLight rain. Overcast.8 mph94%29.71 "HgN/A
5:30 AM54 °FLight rain. Overcast.7 mph94%29.74 "HgN/A
5:00 AM54 °FLight rain. Overcast.6 mph94%29.74 "HgN/A
4:30 AM54 °FSprinkles. Overcast.2 mph94%29.77 "HgN/A
4:00 AM54 °FDrizzle. Mostly cloudy.5 mph88%29.80 "HgN/A
3:30 AM54 °FLight rain. Passing clouds.3 mph88%29.80 "HgN/A
3:00 AM54 °FSprinkles. Mostly cloudy.5 mph82%29.83 "HgN/A
2:30 AM54 °FOvercast.3 mph77%29.86 "HgN/A
2:00 AM54 °FSprinkles. Overcast.5 mph82%29.86 "HgN/A
1:30 AM54 °FDrizzle. Overcast.3 mph82%29.89 "HgN/A
1:00 AM54 °FPassing clouds.3 mph77%29.89 "HgN/A
12:30 AM52 °FMostly cloudy.6 mph88%29.89 "HgN/A
12:00 AM52 °FPassing clouds.6 mph88%29.92 "HgN/A
11:30 PM
Fri, May 22
52 °FCool.5 mph88%29.92 "HgN/A
11:00 PM52 °FCool.3 mph82%29.92 "HgN/A
10:30 PM54 °FCool.2 mph82%29.92 "HgN/A
10:00 PM54 °FPassing clouds.2 mph77%29.95 "HgN/A
9:30 PM52 °FCool.2 mph82%29.95 "HgN/A
9:00 PM52 °FCool.3 mph88%29.95 "HgN/A
8:30 PM54 °FCool.3 mph82%29.95 "HgN/A
8:00 PM55 °FCool.5 mph72%29.95 "HgN/A
7:30 PM54 °FCool.2 mph77%29.95 "HgN/A
7:00 PM54 °FCool.2 mph77%29.98 "HgN/A
6:30 PM55 °FCool.1 mph72%29.95 "HgN/A
6:00 PM55 °FCool.1 mph67%29.95 "HgN/A
5:30 PM55 °FCool.3 mph67%29.95 "HgN/A
5:00 PM55 °FCool.6 mph72%29.95 "HgN/A
4:30 PM57 °FCool.6 mph67%29.95 "HgN/A
4:00 PM57 °FCool.6 mph67%29.95 "HgN/A
3:30 PM57 °FPassing clouds.6 mph67%29.95 "HgN/A
3:00 PM59 °FPassing clouds.8 mph63%29.95 "HgN/A
2:30 PM59 °FPassing clouds.8 mph63%29.95 "HgN/A
2:00 PM59 °FScattered clouds.10 mph68%29.95 "HgN/A
1:30 PM61 °FPassing clouds.12 mph63%29.98 "HgN/A
1:00 PM59 °FPassing clouds.12 mph68%29.98 "HgN/A
12:30 PM59 °FPartly sunny.14 mph72%29.98 "HgN/A
12:00 PM59 °FPartly sunny.14 mph72%29.98 "HgN/A
11:30 AM61 °FBroken clouds.15 mph72%30.01 "HgN/A
11:00 AM61 °FBroken clouds.10 mph77%29.98 "HgN/A
10:30 AM61 °FScattered clouds.13 mph83%29.98 "HgN/A
10:00 AM59 °FPartly sunny.15 mph82%29.98 "HgN/A
9:30 AM59 °FSprinkles. Partly sunny.14 mph88%29.98 "HgN/A
9:00 AM59 °FPassing clouds.6 mph88%29.95 "HgN/A
8:30 AM57 °FBroken clouds.7 mph94%29.95 "HgN/A
8:00 AM57 °FCool.5 mph88%29.95 "HgN/A
Weather by CustomWeather, © 2015

See weather overviewHow to use our weather pages